Retour au catalogue

FENGYUN 1C DEB

ActifSSO
NORAD 31757·DEBRIS·🇨🇳 China

Lancé May 10, 1999 depuis Taiyuan Satellite Launch Center

Loading…

Prochains Passages (prochaines 24 heures)

TLE

FraisSource: Space-Track

Époque: Sep 14, 2026, 06:40 UTC

1 31757U 99025CFG 26257.27797218  .00000335  00000-0  17880-3 0  9991
2 31757  98.7514 276.4284 0216530  26.6651 334.5463 14.08150794677596

Suivez FENGYUN 1C DEB en temps réel avec AllMySat

Download on the App Store